Paynesville, MN

1:50 PM CDT on March 28, 2017 (GMT -0500)
Paynesville

Weather History for KPEX - February, 2013

Change the Weather History Date:

Tuesday, February 19, 2013

  Actual Average (KLJF) Record (KLJF)
Temperature  
Mean Temperature -5 °F -  
Max Temperature 0 °F 28 °F 59 °F (2017)
Min Temperature -12 °F 10 °F -20 °F (1989)
Degree Days  
Heating Degree Days 70    
Moisture  
Dew Point -11 °F    
Average Humidity 70    
Maximum Humidity 79    
Minimum Humidity 63    
Precipitation  
Precipitation 0.00 in - - ()
Sea Level Pressure  
Sea Level Pressure 30.15 in    
Wind  
Wind Speed 15 mph (WNW)    
Max Wind Speed 18 mph    
Max Gust Speed 30 mph    
Visibility 10 miles    
Events Snow    
Averages and records for this station are not official NWS values.
T = Trace of Precipitation, MM = Missing Value Source: NWS Daily Summary

Daily Weather History Graph

Daily Weather History Graph

Search for Another Location

Airport or City:

Trip Planner

Search our weather history database for the weather conditions in past years. The results will help you decide how hot, cold, wet, or windy it might be!

Date:

Astronomy

Feb. 19, 2013 Rise Set
Actual Time 7:13 AM CST 5:52 PM CST
Civil Twilight 6:43 AM CST 6:22 PM CST
Nautical Twilight 6:09 AM CST 6:57 PM CST
Astronomical Twilight 5:35 AM CST 7:31 PM CST
Moon 12:15 PM CST (2/19) 2:55 AM CST (2/19)
Length of Visible Light 11h 39m
Length of Day
10h 38m
Waxing Gibbous, 67% of the Moon is Illuminated
Feb 19
Waxing Gibbous
Feb 25
Full
Mar 4
Last Quarter
Mar 11
New
Mar 19
First Quarter

Hourly Weather History & Observations

Time (CST) Temp. Windchill Dew Point Humidity Pressure Visibility Wind Dir Wind Speed Gust Speed Precip Events Conditions
12:13 AM -0.6 °F -21.4 °F -6.0 °F 78% 29.90 in 7.0 mi WNW 17.3 mph 26.5 mph N/A   Scattered Clouds
12:33 AM -0.4 °F -20.5 °F -5.8 °F 78% 29.91 in 7.0 mi WNW 16.1 mph 26.5 mph N/A Snow Light Snow
12:52 AM -0.4 °F -20.5 °F -5.6 °F 79% 29.91 in 7.0 mi NW 16.1 mph 24.2 mph N/A   Scattered Clouds
1:13 AM -0.2 °F -21.5 °F -5.4 °F 79% 29.92 in 7.0 mi WNW 18.4 mph 24.2 mph N/A   Scattered Clouds
1:33 AM 0.3 °F -20.2 °F -5.1 °F 78% 29.92 in 7.0 mi NW 17.3 mph 25.3 mph N/A   Overcast
1:53 AM 0.3 °F -20.2 °F -5.3 °F 77% 29.93 in 5.0 mi NW 17.3 mph 29.9 mph N/A   Haze
2:13 AM 0.1 °F -19.8 °F -5.6 °F 77% 29.94 in 7.0 mi WNW 16.1 mph 24.2 mph N/A   Overcast
2:33 AM -0.4 °F -19.9 °F -6.0 °F 77% 29.95 in 10.0 mi WNW 15.0 mph 25.3 mph N/A   Overcast
2:52 AM -0.9 °F -20.6 °F -6.7 °F 77% 29.96 in 10.0 mi WNW 15.0 mph 20.7 mph N/A   Overcast
3:13 AM -1.5 °F -20.5 °F -7.4 °F 76% 29.96 in 10.0 mi WNW 13.8 mph 24.2 mph N/A   Mostly Cloudy
3:33 AM -1.7 °F -23.4 °F -7.6 °F 76% 29.96 in 7.0 mi WNW 18.4 mph 26.5 mph N/A   Clear
3:53 AM -2.2 °F -23.5 °F -8.0 °F 76% 29.97 in 10.0 mi WNW 17.3 mph 26.5 mph N/A   Clear
4:13 AM -2.4 °F -23.1 °F -8.1 °F 76% 29.98 in 10.0 mi WNW 16.1 mph 25.3 mph N/A   Clear
4:33 AM -2.7 °F -22.9 °F -8.5 °F 76% 29.99 in 10.0 mi NW 15.0 mph 27.6 mph N/A   Clear
4:53 AM -3.1 °F -23.3 °F -8.9 °F 76% 29.99 in 10.0 mi NW 15.0 mph 23.0 mph N/A   Clear
5:13 AM -3.3 °F -23.6 °F -9.4 °F 75% 30.00 in 10.0 mi WNW 15.0 mph 23.0 mph N/A   Clear
5:53 AM -4.0 °F -25.2 °F -10.3 °F 74% 30.03 in 10.0 mi WNW 16.1 mph 23.0 mph N/A   Clear
6:13 AM -4.2 °F -24.0 °F -10.5 °F 74% 30.04 in 10.0 mi WNW 13.8 mph 23.0 mph N/A   Clear
6:33 AM -4.5 °F -24.4 °F -11.0 °F 74% 30.04 in 10.0 mi WNW 13.8 mph 24.2 mph N/A   Clear
6:53 AM -6.2 °F -28.0 °F -12.1 °F 75% 30.05 in 10.0 mi WNW 16.1 mph 19.6 mph N/A   Clear
7:13 AM -7.1 °F -29.1 °F -13.4 °F 74% 30.07 in 10.0 mi WNW 16.1 mph 23.0 mph N/A   Clear
7:33 AM -7.6 °F -29.8 °F -13.9 °F 74% 30.08 in 10.0 mi WNW 16.1 mph 24.2 mph N/A   Clear
7:53 AM -7.6 °F -29.8 °F -14.3 °F 73% 30.09 in 10.0 mi WNW 16.1 mph 20.7 mph N/A   Clear
8:13 AM -7.8 °F -30.0 °F -14.8 °F 71% 30.11 in 10.0 mi WNW 16.1 mph 21.9 mph N/A   Clear
8:33 AM -7.6 °F -29.8 °F -14.8 °F 71% 30.11 in 10.0 mi NW 16.1 mph 23.0 mph N/A   Clear
8:53 AM -7.1 °F -29.1 °F -14.3 °F 71% 30.12 in 10.0 mi WNW 16.1 mph 23.0 mph N/A   Clear
9:13 AM -6.3 °F -27.5 °F -13.9 °F 70% 30.12 in 7.0 mi NW 15.0 mph 24.2 mph N/A   Clear
9:33 AM -5.8 °F -28.2 °F -13.4 °F 70% 30.13 in 10.0 mi WNW 17.3 mph 23.0 mph N/A   Clear
9:53 AM -5.6 °F -27.3 °F -13.4 °F 69% 30.14 in 7.0 mi WNW 16.1 mph 25.3 mph N/A   Clear
10:13 AM -5.1 °F -26.6 °F -13.2 °F 68% 30.15 in 10.0 mi WNW 16.1 mph 23.0 mph N/A   Clear
10:33 AM -4.9 °F -27.6 °F -13.0 °F 68% 30.15 in 10.0 mi WNW 18.4 mph 24.2 mph N/A   Clear
10:53 AM -4.4 °F -23.4 °F -13.0 °F 66% 30.16 in 10.0 mi WNW 12.7 mph 24.2 mph N/A   Clear
11:13 AM -4.0 °F -25.2 °F -12.5 °F 67% 30.17 in 10.0 mi NW 16.1 mph 21.9 mph N/A   Clear
11:33 AM -3.6 °F -25.4 °F -12.1 °F 67% 30.17 in 10.0 mi WNW 17.3 mph 23.0 mph N/A   Clear
11:53 AM -3.3 °F -24.9 °F -11.9 °F 67% 30.18 in 10.0 mi WNW 17.3 mph 20.7 mph N/A   Clear
12:13 PM -2.9 °F -23.8 °F -11.9 °F 65% 30.19 in 10.0 mi NW 16.1 mph 25.3 mph N/A   Clear
12:33 PM -2.4 °F -21.7 °F -11.4 °F 66% 30.19 in 10.0 mi NW 13.8 mph 20.7 mph N/A   Clear
12:53 PM -2.2 °F -22.2 °F -11.2 °F 66% 30.19 in 10.0 mi WNW 15.0 mph 20.7 mph N/A   Clear
1:13 PM -1.7 °F -21.5 °F -11.2 °F 64% 30.18 in 10.0 mi NW 15.0 mph 23.0 mph N/A   Clear
1:33 PM -1.3 °F -19.6 °F -10.7 °F 65% 30.19 in 10.0 mi WNW 12.7 mph 25.3 mph N/A   Clear
1:53 PM -0.8 °F -21.0 °F -10.3 °F 64% 30.19 in 10.0 mi NW 16.1 mph 25.3 mph N/A   Clear
2:13 PM -1.1 °F -21.5 °F -10.5 °F 65% 30.20 in 10.0 mi WNW 16.1 mph - N/A   Clear
2:33 PM -0.4 °F -20.5 °F -9.6 °F 65% 30.20 in 10.0 mi WNW 16.1 mph 20.7 mph N/A   Clear
2:53 PM 0.3 °F -19.6 °F -9.4 °F 64% 30.21 in 10.0 mi WNW 16.1 mph 21.9 mph N/A   Clear
3:13 PM 0.5 °F -18.0 °F -8.9 °F 65% 30.21 in 10.0 mi NW 13.8 mph 18.4 mph N/A   Clear
3:33 PM 0.5 °F -19.4 °F -9.4 °F 63% 30.23 in 10.0 mi NW 16.1 mph 21.9 mph N/A   Clear
3:53 PM 0.1 °F -18.5 °F -9.8 °F 63% 30.24 in 10.0 mi WNW 13.8 mph 19.6 mph N/A   Clear
4:13 PM -0.4 °F -17.6 °F -9.9 °F 64% 30.25 in 10.0 mi NW 11.5 mph - N/A   Clear
4:32 PM -0.4 °F -18.4 °F -10.3 °F 63% 30.25 in 10.0 mi WNW 12.7 mph 19.6 mph N/A   Clear
4:53 PM -0.6 °F -17.8 °F -9.8 °F 65% 30.26 in 10.0 mi WNW 11.5 mph - N/A   Clear
5:13 PM -0.9 °F -18.3 °F -10.3 °F 65% 30.26 in 10.0 mi WNW 11.5 mph 16.1 mph N/A   Clear
6:33 PM -3.3 °F -21.2 °F -11.6 °F 68% 30.29 in 10.0 mi WNW 11.5 mph - N/A   Clear
6:53 PM -3.6 °F -20.7 °F -12.1 °F 67% 30.30 in 10.0 mi WNW 10.4 mph - N/A   Clear
7:13 PM -4.2 °F -20.4 °F -12.3 °F 68% 30.30 in 10.0 mi WNW 9.2 mph - N/A   Clear
7:53 PM -4.9 °F -24.1 °F -13.0 °F 68% 30.31 in 10.0 mi NW 12.7 mph 18.4 mph N/A   Clear
8:13 PM -5.3 °F -22.8 °F -13.4 °F 68% 30.32 in 10.0 mi NW 10.4 mph 17.3 mph N/A   Clear
8:33 PM -5.8 °F -22.4 °F -13.9 °F 68% 30.33 in 10.0 mi WNW 9.2 mph - N/A   Clear
8:53 PM -6.3 °F -21.9 °F -14.1 °F 69% 30.33 in 10.0 mi NW 8.1 mph 16.1 mph N/A   Clear
9:13 PM -6.3 °F -19.1 °F -14.1 °F 69% 30.33 in 10.0 mi NNW 5.8 mph - N/A   Clear
9:33 PM -7.1 °F -18.1 °F -14.8 °F 69% 30.34 in 10.0 mi WNW 4.6 mph - N/A   Clear
9:53 PM -7.2 °F - -14.8 °F 70% 30.34 in 10.0 mi Calm Calm - N/A   Clear
10:13 PM -7.2 °F -21.7 °F -14.8 °F 70% 30.34 in 10.0 mi NW 6.9 mph - N/A   Clear
10:33 PM -8.1 °F -22.7 °F -15.2 °F 71% 30.34 in 10.0 mi NNW 6.9 mph - N/A   Clear
10:53 PM -7.2 °F -18.3 °F -14.8 °F 70% 30.34 in 10.0 mi NNW 4.6 mph - N/A   Clear
11:13 PM -10.3 °F -25.4 °F -17.0 °F 72% 30.36 in 10.0 mi West 6.9 mph - N/A   Clear
11:33 PM -10.7 °F -20.0 °F -17.3 °F 72% 30.37 in 10.0 mi WSW 3.5 mph - N/A   Clear
11:53 PM -12.3 °F -26.1 °F -18.4 °F 74% 30.38 in 10.0 mi WNW 5.8 mph - N/A   Clear